Showing default

TIROS 8, 716

Orbit data source: Space-Track

TIROS 8, 716 is a payload satellite owned by GSFC (US) in LEO that was launched on Sat, 21 Dec 1963 UTC via a THOR DELTA B launch vehicle from the Air Force Western Test Range (AFWTR). Payload-class satellites include a variety of spacecraft equipped with specific instruments for various scientific and technological missions. These include communications satellites like Starlink; space stations such as the ISS; scientific satellites like the Hubble; Earth observation satellites from companies like Planet Labs, Umbra, and HawkEye 360; GPS; miniature CubeSats for education and research; and military/defense satellites.

Loading next visibility...
Identifier
716, 1963-054A
Orbit
LEO
Country
Flag of USUS
Related business
Manufacturer
RCA/East Windsor
Mission
Non-operational Civil Weather
Bus & Motor
TIROS, Unknown motor
Mass
120 kg wet, 120 kg dry
Launch date (UTC)
1963-12-21 (62 years ago)
Launch vehicle
THOR DELTA B
Launch site
Air Force Western Test Range (AFWTR)
Object type
Payload
Rocket body
Debris
Shape & HBR
Cyl, 0.5 m
Radar Cross Section
0.920 m², Medium (>0.1 m² and < 1m²)

Expand to show TLE details & history
Last TLE update: 12 hours ago

TLE from 12 hours ago
0 TIROS 8
1 00716U 63054A   25258.54774613  .00000394  00000-0  90506-4 0  9991
2 00716  58.4961 333.4642 0015135 264.8393  95.0919 14.72689021275258
Epoch: 2025-09-15T13:08Z
TLE epoch observation values (Epoch: 2025-09-15T13:08:45.265Z)
Latitude
-0.00004°
Longitude
141.52474°
Altitude
654.875 km
Speed
7.53 km/s
True Right ascension
22h 13m 51s
True Declination
0° 00' 00"
Sunlit
Object was in full shadow at epoch
Visualization orbit readout
Latitude
Unknown
Longitude
Unknown
Altitude
Unknown
Speed
Unknown
Apparent Right ascension
Unknown
Apparent Declination
Unknown
Sunlit
N/A
Visualization observer readout
Local Sidereal Time
17:21:07
Azimuth
Unknown
Elevation
Unknown
Doppler factor
Unknown
Orbital elements
Apogee altitude
662.575 km
Perigee altitude
641.295 km
Semi-major axis
7,030.072 km
Eccentricity
0.00151
Inclination
58.4961°
RAAN
333.4642°
Arg. of periapsis
264.8393°
True anomaly
95.26462°
Mean anomaly
95.0919°
Eccentric anomaly
95.17826°
Mean motion
3.68217 °/min
Orbital period
97.77 mins
BSTAR
0.000090506
Loading maneuver chart data...
Computing Atmospheric mass density...
Loading historical data...
Loading historical data...
Loading historical data...
Loading historical data...
Loading historical data...
Loading historical data...
Loading historical data...
Other satellites on launch #54 in the year 1963 (1963-12-21 UTC)

Documentation

Showing up to 5 results
|